Terug naar catalogus

COSMOS 1375 DEB

ActiefLEO
NORAD 17805·DEBRIS·🇷🇺 Russia

Gelanceerd Jun 6, 1982 vanaf Plesetsk Cosmodrome

Loading…

Volgende Passages (komende 24 uur)

TLE

VersSource: Space-Track

Epoch: Sep 13, 2026, 21:57 UTC

1 17805U 82055AX  26256.91523963  .00000961  00000-0  64945-3 0  9997
2 17805  65.8192  67.2629 0019656 216.7703 294.3890 14.04967954 71191

Volg COSMOS 1375 DEB in realtime met AllMySat

Download on the App Store